Time,TemperatureF,DewpointF,PressureIn,WindDirection,WindDirectionDegrees,WindSpeedMPH,WindSpeedGustMPH,Humidity,HourlyPrecipIn,Conditions,Clouds,dailyrainin,SolarRadiationWatts/m^2,SoftwareType,DateUTC
2013-03-15 00:12:00,46.0,35.0,-100.00,SE,138,4.0,6.0,65,-99.99,,,0.00,0.000000,,2013-03-15 06:12:00,
2013-03-15 01:12:00,47.0,34.0,-100.00,SE,145,6.0,7.0,59,-99.99,,,0.00,0.000000,,2013-03-15 07:12:00,
2013-03-15 02:12:00,44.0,34.0,-100.00,NNW,339,2.0,6.0,66,-99.99,,,-99.99,0.000000,,2013-03-15 08:12:00,
2013-03-15 03:12:00,42.0,36.0,-100.00,WSW,244,3.0,5.0,79,-99.99,,,0.00,0.000000,,2013-03-15 09:12:00,
2013-03-15 04:12:00,41.0,35.0,-100.00,NE,50,1.0,4.0,78,-99.99,,,0.00,0.000000,,2013-03-15 10:12:00,
2013-03-15 05:12:00,39.0,34.0,-100.00,NNW,342,1.0,2.0,83,-99.99,,,0.00,0.000000,,2013-03-15 11:12:00,
2013-03-15 06:12:00,39.0,32.0,-100.00,SSE,154,5.0,6.0,77,-99.99,,,0.00,0.000000,,2013-03-15 12:12:00,
2013-03-15 07:12:00,39.0,31.0,-100.00,West,280,5.0,7.0,74,-99.99,,,0.00,0.000000,,2013-03-15 13:12:00,
2013-03-15 08:12:00,38.0,32.0,-100.00,WNW,299,2.0,3.0,79,-99.99,,,0.00,0.000000,,2013-03-15 14:12:00,
2013-03-15 09:12:00,38.0,33.0,-100.00,NW,311,2.0,4.0,82,-99.99,,,-99.99,23.709999,,2013-03-15 15:12:00,
2013-03-15 10:12:00,40.0,35.0,-100.00,NNE,29,1.0,4.0,84,-99.99,,,-99.99,101.339996,,2013-03-15 16:12:00,
2013-03-15 11:12:00,51.0,35.0,-100.00,WSW,247,4.0,9.0,54,-99.99,,,0.00,297.640015,,2013-03-15 17:12:00,
2013-03-15 13:12:00,55.0,32.0,-100.00,WSW,249,20.0,27.0,41,-99.99,,,0.00,666.989990,,2013-03-15 19:12:00,
2013-03-15 14:12:00,55.0,34.0,-100.00,WSW,241,20.0,29.0,44,-99.99,,,-99.99,422.459991,,2013-03-15 20:12:00,
2013-03-15 15:12:00,56.0,34.0,-100.00,WSW,250,19.0,25.0,42,-99.99,,,0.00,410.609985,,2013-03-15 21:12:00,
2013-03-15 16:13:00,57.0,34.0,-100.00,SW,234,17.0,24.0,42,-99.99,,,0.00,365.630005,,2013-03-15 22:13:00,
2013-03-15 16:42:00,60.0,32.0,-100.00,SW,234,19.0,27.0,34,-99.99,,,0.00,531.710022,,2013-03-15 22:42:00,
2013-03-15 16:52:00,60.0,32.0,-100.00,SW,234,19.0,27.0,34,-99.99,,,0.00,531.710022,,2013-03-15 22:52:00,
2013-03-15 17:02:00,60.0,32.0,-100.00,SW,234,19.0,27.0,34,-99.99,,,0.00,531.710022,,2013-03-15 23:02:00,
2013-03-15 17:12:00,60.0,32.0,-100.00,SW,234,19.0,27.0,34,-99.99,,,0.00,531.710022,,2013-03-15 23:12:00,
2013-03-15 18:12:00,59.0,31.0,-100.00,WSW,238,17.0,23.0,35,-99.99,,,0.00,244.880005,,2013-03-16 00:12:00,
2013-03-15 19:12:00,56.0,31.0,-100.00,WSW,247,15.0,22.0,37,-99.99,,,0.00,94.250000,,2013-03-16 01:12:00,
2013-03-15 20:12:00,54.0,32.0,-100.00,WSW,244,13.0,20.0,42,-99.99,,,0.00,35.209999,,2013-03-16 02:12:00,
2013-03-15 21:12:00,49.0,33.0,-100.00,SW,219,6.0,9.0,53,-99.99,,,0.00,0.000000,,2013-03-16 03:12:00,
2013-03-15 22:12:00,48.0,32.0,-100.00,SSE,168,5.0,10.0,53,-99.99,,,0.00,0.000000,,2013-03-16 04:12:00,
2013-03-15 23:12:00,45.0,33.0,-100.00,SSW,204,8.0,12.0,61,-99.99,,,0.00,0.000000,,2013-03-16 05:12:00,